TimeEEST,TemperatureF,Dew PointF,Humidity,Sea Level PressureIn,VisibilityMPH,Wind Direction,Wind SpeedMPH,Gust SpeedMPH,PrecipitationIn,Events,Conditions,WindDirDegrees,DateUTC
12:20 AM,59.0,53.6,82,30.21,-9999.0,NNE,5.8,-,N/A,,Clear,20,2013-10-22 21:20:00
12:50 AM,57.2,55.4,94,30.21,-9999.0,NNW,6.9,-,N/A,,Clear,340,2013-10-22 21:50:00
1:20 AM,59.0,55.4,88,30.21,-9999.0,Variable,5.8,-,N/A,,Clear,0,2013-10-22 22:20:00
1:50 AM,59.0,55.4,88,30.21,3.7,Variable,5.8,-,N/A,,Unknown,0,2013-10-22 22:50:00
2:20 AM,57.2,55.4,94,30.21,3.7,North,6.9,-,N/A,,Unknown,350,2013-10-22 23:20:00
2:50 AM,57.2,55.4,94,30.21,3.7,North,9.2,-,N/A,,Unknown,350,2013-10-22 23:50:00
3:00 AM,57,55,91,30.24,4,North,9.2,,,,Mist,350,2013-10-23 00:00:00
3:20 AM,59.0,55.4,88,30.21,3.7,North,6.9,-,N/A,,Unknown,10,2013-10-23 00:20:00
3:50 AM,59.0,55.4,88,30.21,3.7,NNE,8.1,-,N/A,,Unknown,30,2013-10-23 00:50:00
4:20 AM,59.0,55.4,88,30.21,4.3,NNE,8.1,-,N/A,,Unknown,20,2013-10-23 01:20:00
4:50 AM,59.0,55.4,88,30.21,5.0,North,9.2,-,N/A,,Unknown,360,2013-10-23 01:50:00
5:20 AM,59.0,55.4,88,30.21,4.3,North,10.4,-,N/A,,Partly Cloudy,10,2013-10-23 02:20:00
5:50 AM,59.0,55.4,88,30.21,4.3,North,8.1,-,N/A,,Scattered Clouds,10,2013-10-23 02:50:00
6:20 AM,59.0,55.4,88,30.21,5.0,North,9.2,-,N/A,,Scattered Clouds,10,2013-10-23 03:20:00
6:50 AM,60.8,55.4,82,30.24,4.3,NE,6.9,-,N/A,,Partly Cloudy,40,2013-10-23 03:50:00
7:20 AM,59.0,55.4,88,30.24,3.7,NNE,9.2,-,N/A,,Partly Cloudy,20,2013-10-23 04:20:00
7:50 AM,59.0,55.4,88,30.24,3.7,NNE,9.2,-,N/A,,Partly Cloudy,20,2013-10-23 04:50:00
8:20 AM,59.0,55.4,88,30.27,3.7,NNE,6.9,-,N/A,,Partly Cloudy,30,2013-10-23 05:20:00
8:50 AM,60.8,55.4,82,30.27,6.2,NE,6.9,-,N/A,,Partly Cloudy,50,2013-10-23 05:50:00
9:00 AM,60,55,78,30.28,6,NE,6.9,,,,Scattered Clouds,50,2013-10-23 06:00:00
9:20 AM,60.8,55.4,82,30.27,4.3,NE,9.2,-,N/A,,Scattered Clouds,50,2013-10-23 06:20:00
9:50 AM,60.8,55.4,82,30.27,6.2,NNE,10.4,-,N/A,,Scattered Clouds,30,2013-10-23 06:50:00
10:20 AM,62.6,55.4,77,30.27,6.2,NNE,9.2,-,N/A,,Scattered Clouds,30,2013-10-23 07:20:00
10:50 AM,64.4,55.4,73,30.27,6.2,NNE,11.5,-,N/A,,Partly Cloudy,30,2013-10-23 07:50:00
11:20 AM,66.2,55.4,68,30.27,6.2,NE,10.4,-,N/A,,Partly Cloudy,40,2013-10-23 08:20:00
11:50 AM,68.0,55.4,64,30.27,6.2,NNE,11.5,-,N/A,,Partly Cloudy,20,2013-10-23 08:50:00
12:20 PM,68.0,51.8,56,30.27,6.2,NE,13.8,-,N/A,,Partly Cloudy,50,2013-10-23 09:20:00
12:50 PM,69.8,51.8,53,30.27,-9999.0,NE,13.8,-,N/A,,Clear,40,2013-10-23 09:50:00
1:20 PM,71.6,53.6,53,30.27,-9999.0,NE,11.5,-,N/A,,Clear,40,2013-10-23 10:20:00
1:50 PM,71.6,50.0,46,30.24,-9999.0,NE,11.5,-,N/A,,Clear,40,2013-10-23 10:50:00
2:20 PM,71.6,50.0,46,30.24,-9999.0,NNE,13.8,-,N/A,,Clear,30,2013-10-23 11:20:00
2:50 PM,71.6,50.0,46,30.24,-9999.0,NNE,11.5,-,N/A,,Clear,30,2013-10-23 11:50:00
3:00 PM,71,49,34,30.26,6,NNE,11.5,,,,,30,2013-10-23 12:00:00
3:20 PM,71.6,50.0,46,30.24,-9999.0,ENE,15.0,-,N/A,,Clear,60,2013-10-23 12:20:00
3:50 PM,69.8,50.0,49,30.24,-9999.0,NE,13.8,-,N/A,,Clear,40,2013-10-23 12:50:00
4:20 PM,68.0,48.2,49,30.24,-9999.0,NNE,13.8,-,N/A,,Clear,30,2013-10-23 13:20:00
4:50 PM,66.2,50.0,56,30.24,-9999.0,NE,15.0,-,N/A,,Clear,40,2013-10-23 13:50:00
5:20 PM,66.2,51.8,60,30.27,-9999.0,NNE,12.7,-,N/A,,Clear,30,2013-10-23 14:20:00
5:50 PM,64.4,53.6,68,30.27,-9999.0,NE,12.7,-,N/A,,Clear,40,2013-10-23 14:50:00
6:20 PM,62.6,53.6,72,30.27,-9999.0,NNE,13.8,-,N/A,,Clear,30,2013-10-23 15:20:00
6:50 PM,62.6,53.6,72,30.27,-9999.0,NNE,12.7,-,N/A,,Clear,30,2013-10-23 15:50:00
7:20 PM,62.6,55.4,77,30.27,-9999.0,NE,11.5,-,N/A,,Clear,40,2013-10-23 16:20:00
7:50 PM,62.6,53.6,72,30.30,-9999.0,NE,11.5,-,N/A,,Clear,40,2013-10-23 16:50:00
8:20 PM,60.8,53.6,77,30.30,-9999.0,NE,10.4,-,N/A,,Clear,40,2013-10-23 17:20:00
8:50 PM,60.8,53.6,77,30.30,-9999.0,NE,11.5,-,N/A,,Clear,40,2013-10-23 17:50:00
9:00 PM,61,54,70,30.32,6,NE,11.5,,,,,40,2013-10-23 18:00:00
9:20 PM,60.8,53.6,77,30.30,-9999.0,NE,10.4,-,N/A,,Clear,40,2013-10-23 18:20:00
9:50 PM,60.8,55.4,82,30.30,-9999.0,NE,9.2,-,N/A,,Clear,50,2013-10-23 18:50:00
10:20 PM,60.8,55.4,82,30.33,-9999.0,NE,10.4,-,N/A,,Clear,50,2013-10-23 19:20:00
10:50 PM,60.8,55.4,82,30.33,-9999.0,ENE,8.1,-,N/A,,Clear,60,2013-10-23 19:50:00
11:20 PM,60.8,53.6,77,30.33,-9999.0,NE,10.4,-,N/A,,Clear,40,2013-10-23 20:20:00
11:50 PM,60.8,53.6,77,30.33,-9999.0,NE,9.2,-,N/A,,Clear,50,2013-10-23 20:50:00